Weather History for Orange, MA

Change the Weather History Date:

Sunday, November 25, 2012

  Actual Average Record
Temperature  
Mean Temperature 32 °F -  
Max Temperature 35 °F 42 °F 62 °F (2004)
Min Temperature 28 °F 24 °F 7 °F (2000)
Degree Days  
Heating Degree Days 34    
Moisture  
Dew Point 17 °F    
Average Humidity 54    
Maximum Humidity 69    
Minimum Humidity 43    
Precipitation  
Precipitation 0.00 in - - ()
Sea Level Pressure  
Sea Level Pressure 29.79 in    
Wind  
Wind Speed 11 mph (WSW)    
Max Wind Speed 18 mph    
Max Gust Speed 29 mph    
Visibility 10 miles    
Events      
Averages and records for this station are not official NWS values.
T = Trace of Precipitation, MM = Missing Value Source: NWS Daily Summary

Daily Weather History Graph

Daily Weather History Graph

Search for Another Location

Airport:

Trip Planner

Search our weather history database for the weather conditions in past years. The results will help you decide how hot, cold, wet, or windy it might be!

Date:

Astronomy

Nov. 25, 2012 Rise Set
Actual Time 6:53 AM EST 4:19 PM EST
Civil Twilight 6:22 AM EST 4:50 PM EST
Nautical Twilight 5:47 AM EST 5:25 PM EST
Astronomical Twilight 5:13 AM EST 5:58 PM EST
Moon 2:36 PM EST (11/25) 4:01 AM EST (11/25)
Length of Visible Light 10h 28m
Length of Day
9h 26m
Waxing Gibbous, 93% of the Moon is Illuminated
Nov 25
Waxing Gibbous
Nov 28
Full
Dec 6
Last Quarter
Dec 13
New
Dec 20
First Quarter

Hourly Weather History & Observations

Time (EST) Temp. Windchill Dew Point Humidity Pressure Visibility Wind Dir Wind Speed Gust Speed Precip Events Conditions
12:52 AM 30.9 °F 21.7 °F 14.0 °F 50% 29.70 in 10.0 mi WNW 11.5 mph 21.9 mph N/A   Overcast
1:52 AM 30.9 °F 23.5 °F 14.0 °F 50% 29.72 in 10.0 mi West 8.1 mph 18.4 mph N/A   Overcast
2:52 AM 30.0 °F 20.0 °F 12.9 °F 49% 29.73 in 10.0 mi WNW 12.7 mph 25.3 mph N/A   Scattered Clouds
3:52 AM 30.0 °F 18.7 °F 12.9 °F 49% 29.74 in 10.0 mi West 16.1 mph 28.8 mph N/A   Clear
4:52 AM 28.9 °F 22.8 °F 12.9 °F 51% 29.76 in 10.0 mi Variable 5.8 mph - N/A   Mostly Cloudy
5:52 AM 28.0 °F 18.6 °F 14.0 °F 56% 29.77 in 10.0 mi West 10.4 mph 19.6 mph N/A   Partly Cloudy
6:52 AM 28.0 °F 17.5 °F 12.9 °F 53% 29.78 in 10.0 mi West 12.7 mph 25.3 mph N/A   Clear
7:52 AM 28.9 °F 19.2 °F 12.9 °F 51% 29.78 in 10.0 mi West 11.5 mph 18.4 mph N/A   Clear
8:52 AM 32.0 °F 21.6 °F 12.9 °F 45% 29.78 in 10.0 mi West 15.0 mph 26.5 mph N/A   Clear
9:52 AM 33.1 °F 21.9 °F 12.9 °F 43% 29.80 in 10.0 mi West 18.4 mph 28.8 mph N/A   Clear
10:52 AM 34.0 °F 26.0 °F 14.0 °F 44% 29.79 in 10.0 mi WNW 10.4 mph 21.9 mph N/A   Clear
11:52 AM 34.0 °F 24.2 °F 15.1 °F 46% 29.77 in 10.0 mi West 15.0 mph 21.9 mph N/A   Partly Cloudy
12:52 PM 35.1 °F 26.9 °F 15.1 °F 44% 29.76 in 10.0 mi West 11.5 mph 23.0 mph N/A   Mostly Cloudy
1:52 PM 34.0 °F 25.0 °F 17.1 °F 50% 29.77 in 10.0 mi West 12.7 mph 17.3 mph N/A   Overcast
2:52 PM 34.0 °F 25.5 °F 18.0 °F 52% 29.77 in 10.0 mi West 11.5 mph 21.9 mph N/A   Scattered Clouds
3:52 PM 34.0 °F 26.0 °F 19.0 °F 54% 29.78 in 10.0 mi West 10.4 mph 19.6 mph N/A   Mostly Cloudy
4:52 PM 33.1 °F 24.9 °F 19.9 °F 59% 29.80 in 10.0 mi West 10.4 mph 20.7 mph N/A   Clear
5:52 PM 30.9 °F 26.2 °F 19.9 °F 64% 29.81 in 10.0 mi SW 4.6 mph - N/A   Mostly Cloudy
6:52 PM 30.0 °F 22.4 °F 21.0 °F 69% 29.82 in 10.0 mi SSW 8.1 mph - N/A   Mostly Cloudy
7:52 PM 32.0 °F 25.6 °F 21.9 °F 66% 29.83 in 10.0 mi SW 6.9 mph - N/A   Overcast
8:52 PM 33.1 °F 26.1 °F 21.9 °F 64% 29.84 in 10.0 mi SSW 8.1 mph - N/A   Overcast
9:52 PM 32.0 °F 25.6 °F 21.9 °F 66% 29.85 in 10.0 mi SSW 6.9 mph - N/A   Overcast
10:52 PM 33.1 °F 28.7 °F 21.0 °F 61% 29.85 in 10.0 mi SW 4.6 mph - N/A   Overcast
11:52 PM 32.0 °F 24.8 °F 21.9 °F 66% 29.86 in 10.0 mi SSW 8.1 mph - N/A   Mostly Cloudy